Time,TemperatureF,DewpointF,PressureIn,WindDirection,WindDirectionDegrees,WindSpeedMPH,WindSpeedGustMPH,Humidity,HourlyPrecipIn,Conditions,Clouds,dailyrainin,SoftwareType,DateUTC
2013-12-07 00:01:00,17.9,9.8,30.17,NNW,337,0.0,0.0,70,0.00,,,0.00,WUHU21623XXSP,2013-12-07 05:01:00,
2013-12-07 00:02:00,17.9,9.8,30.17,NNW,337,0.0,0.0,70,0.00,,,0.00,WUHU21623XXSP,2013-12-07 05:02:00,
2013-12-07 00:07:00,17.9,9.8,30.17,WNW,292,4.0,4.0,70,0.00,,,0.00,WUHU21623XXSP,2013-12-07 05:07:00,
2013-12-07 00:12:00,18.1,9.7,30.17,WNW,292,0.0,4.0,69,0.00,,,0.00,WUHU21623XXSP,2013-12-07 05:12:00,
2013-12-07 00:38:00,18.1,9.4,30.18,NW,315,0.0,0.0,68,0.00,,,0.00,WUHU21623XXSP,2013-12-07 05:38:00,
2013-12-07 01:38:00,18.4,9.7,30.18,West,270,0.0,0.0,68,0.00,,,0.00,WUHU21623XXSP,2013-12-07 06:38:00,
2013-12-07 02:38:00,18.8,9.7,30.20,West,270,5.4,5.4,67,0.00,,,0.00,WUHU21623XXSP,2013-12-07 07:38:00,
2013-12-07 03:38:00,18.6,9.5,30.20,NW,315,6.9,6.9,67,0.00,,,0.00,WUHU21623XXSP,2013-12-07 08:38:00,
2013-12-07 04:38:00,18.6,9.5,30.22,WNW,293,0.0,0.0,67,0.00,,,0.00,WUHU21623XXSP,2013-12-07 09:38:00,
2013-12-07 05:38:00,18.6,8.8,30.24,North,0,0.0,0.0,65,0.00,,,0.00,WUHU21623XXSP,2013-12-07 10:38:00,
2013-12-07 06:38:00,17.7,6.9,30.25,WNW,293,0.0,0.0,62,0.00,,,0.00,WUHU21623XXSP,2013-12-07 11:38:00,
2013-12-07 07:38:00,17.7,7.3,30.27,NW,315,0.0,0.0,63,0.00,,,0.00,WUHU21623XXSP,2013-12-07 12:38:00,
2013-12-07 08:38:00,17.2,6.8,30.30,WSW,248,5.1,5.1,63,0.00,,,0.00,WUHU21623XXSP,2013-12-07 13:38:00,
2013-12-07 09:38:00,18.4,7.9,30.32,NW,315,5.6,5.6,63,0.00,,,0.00,WUHU21623XXSP,2013-12-07 14:38:00,
2013-12-07 10:38:00,19.5,8.3,30.34,West,270,8.1,8.1,61,0.00,,,0.00,WUHU21623XXSP,2013-12-07 15:38:00,
2013-12-07 11:33:00,21.1,8.6,30.34,NNW,337,7.4,7.4,58,0.00,,,0.00,WUHU21623XXSP,2013-12-07 16:33:00,
2013-12-07 11:40:00,21.7,9.2,30.34,South,180,0.0,7.4,58,0.00,,,0.00,WUHU21623XXSP,2013-12-07 16:40:00,
2013-12-07 11:46:00,22.2,9.7,30.34,WSW,247,5.4,5.4,58,0.00,,,0.00,WUHU21623XXSP,2013-12-07 16:46:00,
2013-12-07 11:51:00,22.6,9.7,30.34,WSW,247,4.7,5.4,57,0.00,,,0.00,WUHU21623XXSP,2013-12-07 16:51:00,
2013-12-07 11:56:00,22.4,9.5,30.34,NNW,337,0.0,4.7,57,0.00,,,0.00,WUHU21623XXSP,2013-12-07 16:56:00,
2013-12-07 12:01:00,22.0,8.7,30.34,WNW,292,7.4,7.4,56,0.00,,,0.00,WUHU21623XXSP,2013-12-07 17:01:00,
2013-12-07 12:06:00,21.3,8.0,30.34,WNW,292,7.8,7.8,56,0.00,,,0.00,WUHU21623XXSP,2013-12-07 17:06:00,
2013-12-07 12:11:00,20.6,7.4,30.34,WNW,292,3.8,7.8,56,0.00,,,0.00,WUHU21623XXSP,2013-12-07 17:11:00,
2013-12-07 12:16:00,20.4,7.6,30.34,WSW,247,0.0,7.6,57,0.00,,,0.00,WUHU21623XXSP,2013-12-07 17:16:00,
2013-12-07 12:21:00,20.6,7.8,30.33,West,270,0.0,7.6,57,0.00,,,0.00,WUHU21623XXSP,2013-12-07 17:21:00,
2013-12-07 12:27:00,21.0,8.2,30.33,West,270,2.9,2.9,57,0.00,,,0.00,WUHU21623XXSP,2013-12-07 17:27:00,
2013-12-07 12:33:00,21.1,8.2,30.33,WNW,292,2.5,2.9,57,0.00,,,0.00,WUHU21623XXSP,2013-12-07 17:33:00,
2013-12-07 12:38:00,21.3,8.4,30.33,West,270,2.5,2.5,57,0.00,,,0.00,WUHU21623XXSP,2013-12-07 17:38:00,
2013-12-07 12:44:00,21.3,8.4,30.33,SSW,202,0.0,2.5,57,0.00,,,0.00,WUHU21623XXSP,2013-12-07 17:44:00,
2013-12-07 12:49:00,21.3,8.4,30.33,WNW,292,4.3,4.3,57,0.00,,,0.00,WUHU21623XXSP,2013-12-07 17:49:00,
2013-12-07 12:54:00,21.1,8.2,30.33,SSW,202,6.7,6.7,57,0.00,,,0.00,WUHU21623XXSP,2013-12-07 17:54:00,
2013-12-07 13:01:00,21.0,8.2,30.33,West,270,0.0,6.7,57,0.00,,,0.00,WUHU21623XXSP,2013-12-07 18:01:00,
2013-12-07 13:06:00,21.1,8.2,30.33,WNW,292,0.0,0.0,57,0.00,,,0.00,WUHU21623XXSP,2013-12-07 18:06:00,
2013-12-07 13:11:00,21.1,8.2,30.33,West,270,0.0,0.0,57,0.00,,,0.00,WUHU21623XXSP,2013-12-07 18:11:00,
2013-12-07 13:16:00,21.3,8.4,30.33,NNW,337,9.2,9.2,57,0.00,,,0.00,WUHU21623XXSP,2013-12-07 18:16:00,
2013-12-07 13:21:00,21.3,8.4,30.33,West,270,1.8,9.2,57,0.00,,,0.00,WUHU21623XXSP,2013-12-07 18:21:00,
2013-12-07 13:27:00,21.3,8.4,30.33,NNW,337,2.5,2.5,57,0.00,,,0.00,WUHU21623XXSP,2013-12-07 18:27:00,
2013-12-07 13:32:00,21.3,8.4,30.33,NNW,337,0.0,2.5,57,0.00,,,0.00,WUHU21623XXSP,2013-12-07 18:32:00,
2013-12-07 13:37:00,21.3,8.4,30.33,NW,315,0.0,0.0,57,0.00,,,0.00,WUHU21623XXSP,2013-12-07 18:37:00,
2013-12-07 13:44:00,21.3,8.4,30.33,West,270,4.7,10.1,57,0.00,,,0.00,WUHU21623XXSP,2013-12-07 18:44:00,
2013-12-07 13:52:00,21.3,8.0,30.32,WSW,247,5.8,5.8,56,0.00,,,0.00,WUHU21623XXSP,2013-12-07 18:52:00,
2013-12-07 13:59:00,21.3,8.0,30.31,WNW,292,2.2,5.8,56,0.00,,,0.00,WUHU21623XXSP,2013-12-07 18:59:00,
2013-12-07 14:04:00,21.3,8.0,30.31,NNW,337,5.8,5.8,56,0.00,,,0.00,WUHU21623XXSP,2013-12-07 19:04:00,
2013-12-07 14:09:00,21.3,8.0,30.31,SSW,202,0.0,5.8,56,0.00,,,0.00,WUHU21623XXSP,2013-12-07 19:09:00,
2013-12-07 14:14:00,21.3,8.0,30.31,West,270,3.1,3.1,56,0.00,,,0.00,WUHU21623XXSP,2013-12-07 19:14:00,
2013-12-07 14:19:00,21.3,8.0,30.31,WNW,292,4.3,4.3,56,0.00,,,0.00,WUHU21623XXSP,2013-12-07 19:19:00,
2013-12-07 14:24:00,21.1,7.8,30.31,WSW,247,0.0,4.3,56,0.00,,,0.00,WUHU21623XXSP,2013-12-07 19:24:00,
2013-12-07 14:29:00,20.8,7.6,30.31,West,270,5.4,5.4,56,0.00,,,0.00,WUHU21623XXSP,2013-12-07 19:29:00,
2013-12-07 14:34:00,20.8,7.6,30.31,NNW,337,4.3,5.4,56,0.00,,,0.00,WUHU21623XXSP,2013-12-07 19:34:00,
2013-12-07 14:39:00,20.8,7.6,30.31,WNW,292,0.0,4.3,56,0.00,,,0.00,WUHU21623XXSP,2013-12-07 19:39:00,
2013-12-07 14:44:00,20.4,7.2,30.31,West,270,0.0,4.7,56,0.00,,,0.00,WUHU21623XXSP,2013-12-07 19:44:00,
2013-12-07 14:50:00,20.4,7.2,30.31,West,270,6.5,6.5,56,0.00,,,0.00,WUHU21623XXSP,2013-12-07 19:50:00,
2013-12-07 14:55:00,20.4,7.2,30.31,West,270,0.0,6.5,56,0.00,,,0.00,WUHU21623XXSP,2013-12-07 19:55:00,
2013-12-07 15:01:00,20.6,7.4,30.31,WNW,292,6.5,6.5,56,0.00,,,0.00,WUHU21623XXSP,2013-12-07 20:01:00,
2013-12-07 15:06:00,20.4,7.2,30.31,WNW,292,0.0,6.5,56,0.00,,,0.00,WUHU21623XXSP,2013-12-07 20:06:00,
2013-12-07 15:11:00,20.4,7.2,30.31,WNW,292,6.5,6.5,56,0.00,,,0.00,WUHU21623XXSP,2013-12-07 20:11:00,
2013-12-07 15:16:00,20.2,7.0,30.31,WNW,292,0.0,6.5,56,0.00,,,0.00,WUHU21623XXSP,2013-12-07 20:16:00,
2013-12-07 15:21:00,20.2,7.0,30.31,WNW,292,2.5,2.5,56,0.00,,,0.00,WUHU21623XXSP,2013-12-07 20:21:00,
2013-12-07 15:26:00,20.1,6.9,30.31,SW,225,0.0,2.5,56,0.00,,,0.00,WUHU21623XXSP,2013-12-07 20:26:00,
2013-12-07 15:31:00,20.1,6.9,30.31,ESE,112,0.0,0.0,56,0.00,,,0.00,WUHU21623XXSP,2013-12-07 20:31:00,
2013-12-07 15:36:00,19.9,7.1,30.31,West,270,0.0,2.9,57,0.00,,,0.00,WUHU21623XXSP,2013-12-07 20:36:00,
2013-12-07 15:41:00,19.9,7.1,30.32,West,270,0.0,2.9,57,0.00,,,0.00,WUHU21623XXSP,2013-12-07 20:41:00,
2013-12-07 15:46:00,19.9,7.1,30.32,WNW,292,0.0,0.0,57,0.00,,,0.00,WUHU21623XXSP,2013-12-07 20:46:00,
2013-12-07 15:51:00,19.9,7.1,30.33,West,270,0.0,0.0,57,0.00,,,0.00,WUHU21623XXSP,2013-12-07 20:51:00,
2013-12-07 15:56:00,19.7,6.9,30.33,West,270,0.0,0.0,57,0.00,,,0.00,WUHU21623XXSP,2013-12-07 20:56:00,
2013-12-07 16:01:00,19.5,6.7,30.33,WNW,292,4.0,4.0,57,0.00,,,0.00,WUHU21623XXSP,2013-12-07 21:01:00,
2013-12-07 16:06:00,19.5,6.7,30.33,WNW,292,2.5,4.0,57,0.00,,,0.00,WUHU21623XXSP,2013-12-07 21:06:00,
2013-12-07 16:11:00,19.3,6.6,30.33,WNW,292,0.0,2.5,57,0.00,,,0.00,WUHU21623XXSP,2013-12-07 21:11:00,
2013-12-07 16:16:00,19.3,6.6,30.33,West,270,0.0,0.0,57,0.00,,,0.00,WUHU21623XXSP,2013-12-07 21:16:00,
2013-12-07 16:21:00,19.0,6.3,30.33,West,270,3.6,3.6,57,0.00,,,0.00,WUHU21623XXSP,2013-12-07 21:21:00,
2013-12-07 16:26:00,19.0,6.3,30.33,NNW,337,0.0,3.6,57,0.00,,,0.00,WUHU21623XXSP,2013-12-07 21:26:00,
2013-12-07 16:31:00,19.0,6.3,30.33,WNW,292,8.5,8.5,57,0.00,,,0.00,WUHU21623XXSP,2013-12-07 21:31:00,
2013-12-07 16:37:00,18.6,5.9,30.33,West,270,0.0,8.5,57,0.00,,,0.00,WUHU21623XXSP,2013-12-07 21:37:00,
2013-12-07 16:55:00,18.1,5.8,30.33,NW,315,0.0,0.0,58,0.00,,,0.00,WUHU21623XXSP,2013-12-07 21:55:00,
2013-12-07 17:01:00,18.1,5.8,30.33,WNW,292,0.0,0.0,58,0.00,,,0.00,WUHU21623XXSP,2013-12-07 22:01:00,
2013-12-07 17:06:00,17.9,6.0,30.33,WNW,292,0.0,0.0,59,0.00,,,0.00,WUHU21623XXSP,2013-12-07 22:06:00,
2013-12-07 17:11:00,17.7,5.8,30.33,West,270,0.0,0.0,59,0.00,,,0.00,WUHU21623XXSP,2013-12-07 22:11:00,
2013-12-07 17:16:00,17.7,5.8,30.33,NW,315,0.0,0.0,59,0.00,,,0.00,WUHU21623XXSP,2013-12-07 22:16:00,
2013-12-07 17:21:00,17.5,5.6,30.33,WNW,292,0.0,0.0,59,0.00,,,0.00,WUHU21623XXSP,2013-12-07 22:21:00,
2013-12-07 17:26:00,17.5,5.6,30.33,West,270,0.0,0.0,59,0.00,,,0.00,WUHU21623XXSP,2013-12-07 22:26:00,
2013-12-07 17:31:00,17.2,5.7,30.33,WNW,292,0.0,0.0,60,0.00,,,0.00,WUHU21623XXSP,2013-12-07 22:31:00,
2013-12-07 17:36:00,17.2,5.7,30.33,WNW,292,0.0,0.0,60,0.00,,,0.00,WUHU21623XXSP,2013-12-07 22:36:00,
2013-12-07 17:41:00,17.0,5.5,30.33,WNW,292,0.0,0.0,60,0.00,,,0.00,WUHU21623XXSP,2013-12-07 22:41:00,
2013-12-07 17:46:00,16.8,5.7,30.34,WNW,292,0.0,0.0,61,0.00,,,0.00,WUHU21623XXSP,2013-12-07 22:46:00,
2013-12-07 17:51:00,16.8,5.7,30.34,WNW,292,0.0,0.0,61,0.00,,,0.00,WUHU21623XXSP,2013-12-07 22:51:00,
2013-12-07 17:57:00,16.6,5.5,30.34,WNW,292,5.1,5.1,61,0.00,,,0.00,WUHU21623XXSP,2013-12-07 22:57:00,
2013-12-07 18:02:00,16.6,5.5,30.34,NW,315,0.0,5.1,61,0.00,,,0.00,WUHU21623XXSP,2013-12-07 23:02:00,
2013-12-07 18:07:00,16.5,5.4,30.34,West,270,0.0,0.0,61,0.00,,,0.00,WUHU21623XXSP,2013-12-07 23:07:00,
2013-12-07 18:12:00,16.3,5.2,30.35,West,270,0.0,0.0,61,0.00,,,0.00,WUHU21623XXSP,2013-12-07 23:12:00,
2013-12-07 18:18:00,16.3,5.6,30.34,West,270,0.0,0.0,62,0.00,,,0.00,WUHU21623XXSP,2013-12-07 23:18:00,
2013-12-07 18:31:00,15.9,5.2,30.34,West,270,1.3,1.3,62,0.00,,,0.00,WUHU21623XXSP,2013-12-07 23:31:00,
2013-12-07 18:36:00,15.9,5.6,30.34,WNW,292,0.0,1.3,63,0.00,,,0.00,WUHU21623XXSP,2013-12-07 23:36:00,
2013-12-07 18:41:00,15.7,5.4,30.34,WNW,292,0.0,0.0,63,0.00,,,0.00,WUHU21623XXSP,2013-12-07 23:41:00,
2013-12-07 18:46:00,15.7,5.4,30.35,WNW,292,0.0,0.0,63,0.00,,,0.00,WUHU21623XXSP,2013-12-07 23:46:00,
2013-12-07 18:51:00,15.7,5.4,30.35,WNW,292,0.0,0.0,63,0.00,,,0.00,WUHU21623XXSP,2013-12-07 23:51:00,
2013-12-07 18:59:00,15.4,5.1,30.35,WNW,292,0.0,0.0,63,0.00,,,0.00,WUHU21623XXSP,2013-12-07 23:59:00,
2013-12-07 19:05:00,15.4,5.1,30.36,WNW,292,0.0,0.0,63,0.00,,,0.00,WUHU21623XXSP,2013-12-08 00:05:00,
2013-12-07 19:10:00,15.2,5.2,30.36,WNW,292,0.0,0.0,64,0.00,,,0.00,WUHU21623XXSP,2013-12-08 00:10:00,
2013-12-07 19:16:00,15.0,5.1,30.36,WNW,292,0.0,0.0,64,0.00,,,0.00,WUHU21623XXSP,2013-12-08 00:16:00,
2013-12-07 19:26:00,14.8,5.2,30.37,WNW,292,0.0,0.0,65,0.00,,,0.00,WUHU21623XXSP,2013-12-08 00:26:00,
2013-12-07 19:33:00,14.7,5.1,30.37,WNW,292,0.0,0.0,65,0.00,,,0.00,WUHU21623XXSP,2013-12-08 00:33:00,
2013-12-07 19:44:00,14.5,4.9,30.37,WNW,292,0.0,0.0,65,0.00,,,0.00,WUHU21623XXSP,2013-12-08 00:44:00,
2013-12-07 19:49:00,14.5,5.3,30.37,WNW,292,0.0,0.0,66,0.00,,,0.00,WUHU21623XXSP,2013-12-08 00:49:00,
2013-12-07 19:54:00,14.3,5.1,30.37,WNW,292,0.0,0.0,66,0.00,,,0.00,WUHU21623XXSP,2013-12-08 00:54:00,
2013-12-07 19:59:00,14.1,4.9,30.38,WNW,292,0.0,0.0,66,0.00,,,0.00,WUHU21623XXSP,2013-12-08 00:59:00,
2013-12-07 20:05:00,14.1,4.9,30.37,WNW,292,0.0,0.0,66,0.00,,,0.00,WUHU21623XXSP,2013-12-08 01:05:00,
2013-12-07 20:10:00,14.1,5.2,30.37,West,270,4.3,4.3,67,0.00,,,0.00,WUHU21623XXSP,2013-12-08 01:10:00,
2013-12-07 20:18:00,14.1,5.2,30.37,WNW,292,0.0,0.0,67,0.00,,,0.00,WUHU21623XXSP,2013-12-08 01:18:00,
2013-12-07 20:23:00,14.1,5.2,30.37,WNW,292,0.0,0.0,67,0.00,,,0.00,WUHU21623XXSP,2013-12-08 01:23:00,
2013-12-07 20:28:00,14.1,5.2,30.37,WNW,292,0.0,0.0,67,0.00,,,0.00,WUHU21623XXSP,2013-12-08 01:28:00,
2013-12-07 20:33:00,13.9,5.0,30.37,WNW,292,0.0,0.0,67,0.00,,,0.00,WUHU21623XXSP,2013-12-08 01:33:00,
2013-12-07 20:50:00,13.6,4.7,30.37,WNW,292,0.0,0.0,67,0.00,,,0.00,WUHU21623XXSP,2013-12-08 01:50:00,
2013-12-07 20:55:00,13.6,5.0,30.37,WNW,292,0.0,0.0,68,0.00,,,0.00,WUHU21623XXSP,2013-12-08 01:55:00,
2013-12-07 21:00:00,13.4,4.9,30.37,WNW,292,0.0,0.0,68,0.00,,,0.00,WUHU21623XXSP,2013-12-08 02:00:00,
2013-12-07 21:05:00,13.2,4.7,30.37,WNW,292,2.5,2.5,68,0.00,,,0.00,WUHU21623XXSP,2013-12-08 02:05:00,
2013-12-07 21:10:00,13.2,4.7,30.37,West,270,0.0,2.5,68,0.00,,,0.00,WUHU21623XXSP,2013-12-08 02:10:00,
2013-12-07 21:15:00,13.2,4.7,30.37,West,270,0.0,0.0,68,0.00,,,0.00,WUHU21623XXSP,2013-12-08 02:15:00,
2013-12-07 21:20:00,13.0,4.5,30.37,West,270,0.0,0.0,68,0.00,,,0.00,WUHU21623XXSP,2013-12-08 02:20:00,
2013-12-07 21:25:00,13.0,4.5,30.37,West,270,0.0,0.0,68,0.00,,,0.00,WUHU21623XXSP,2013-12-08 02:25:00,
2013-12-07 21:31:00,12.9,4.4,30.37,West,270,0.0,0.0,68,0.00,,,0.00,WUHU21623XXSP,2013-12-08 02:31:00,
2013-12-07 21:36:00,12.9,4.4,30.37,West,270,0.0,0.0,68,0.00,,,0.00,WUHU21623XXSP,2013-12-08 02:36:00,
2013-12-07 21:41:00,12.7,4.2,30.36,West,270,0.0,0.0,68,0.00,,,0.00,WUHU21623XXSP,2013-12-08 02:41:00,
2013-12-07 21:46:00,12.7,4.2,30.37,West,270,0.0,0.0,68,0.00,,,0.00,WUHU21623XXSP,2013-12-08 02:46:00,
2013-12-07 21:51:00,12.7,4.2,30.37,West,270,0.0,0.0,68,0.00,,,0.00,WUHU21623XXSP,2013-12-08 02:51:00,
2013-12-07 21:58:00,12.3,3.8,30.37,West,270,0.0,0.0,68,0.00,,,0.00,WUHU21623XXSP,2013-12-08 02:58:00,
2013-12-07 22:04:00,12.3,3.8,30.37,West,270,0.0,0.0,68,0.00,,,0.00,WUHU21623XXSP,2013-12-08 03:04:00,
2013-12-07 22:09:00,12.3,3.8,30.37,West,270,0.0,0.0,68,0.00,,,0.00,WUHU21623XXSP,2013-12-08 03:09:00,
2013-12-07 22:14:00,12.3,4.1,30.37,West,270,0.0,0.0,69,0.00,,,0.00,WUHU21623XXSP,2013-12-08 03:14:00,
2013-12-07 22:19:00,12.1,3.9,30.37,West,270,0.0,0.0,69,0.00,,,0.00,WUHU21623XXSP,2013-12-08 03:19:00,
2013-12-07 22:24:00,12.1,3.9,30.36,West,270,0.0,0.0,69,0.00,,,0.00,WUHU21623XXSP,2013-12-08 03:24:00,
2013-12-07 22:29:00,12.1,3.9,30.36,West,270,0.0,0.0,69,0.00,,,0.00,WUHU21623XXSP,2013-12-08 03:29:00,
2013-12-07 22:34:00,11.8,3.6,30.36,West,270,0.0,0.0,69,0.00,,,0.00,WUHU21623XXSP,2013-12-08 03:34:00,
2013-12-07 22:39:00,11.8,3.6,30.35,West,270,0.0,0.0,69,0.00,,,0.00,WUHU21623XXSP,2013-12-08 03:39:00,
2013-12-07 22:44:00,11.6,3.4,30.36,West,270,0.0,0.0,69,0.00,,,0.00,WUHU21623XXSP,2013-12-08 03:44:00,
2013-12-07 22:49:00,11.6,3.4,30.35,West,270,0.0,0.0,69,0.00,,,0.00,WUHU21623XXSP,2013-12-08 03:49:00,
2013-12-07 22:54:00,11.2,3.1,30.35,West,270,0.0,0.0,69,0.00,,,0.00,WUHU21623XXSP,2013-12-08 03:54:00,
2013-12-07 22:59:00,11.2,3.1,30.35,West,270,0.0,0.0,69,0.00,,,0.00,WUHU21623XXSP,2013-12-08 03:59:00,
2013-12-07 23:04:00,11.2,3.4,30.35,West,270,0.0,0.0,70,0.00,,,0.00,WUHU21623XXSP,2013-12-08 04:04:00,
2013-12-07 23:09:00,10.9,3.1,30.35,West,270,0.0,0.0,70,0.00,,,0.00,WUHU21623XXSP,2013-12-08 04:09:00,
2013-12-07 23:14:00,10.9,3.1,30.35,West,270,0.0,0.0,70,0.00,,,0.00,WUHU21623XXSP,2013-12-08 04:14:00,
2013-12-07 23:19:00,10.9,3.1,30.35,West,270,0.0,0.0,70,0.00,,,0.00,WUHU21623XXSP,2013-12-08 04:19:00,
2013-12-07 23:24:00,10.7,3.2,30.35,West,270,0.0,0.0,71,0.00,,,0.00,WUHU21623XXSP,2013-12-08 04:24:00,
2013-12-07 23:29:00,10.5,3.0,30.35,West,270,0.0,0.0,71,0.00,,,0.00,WUHU21623XXSP,2013-12-08 04:29:00,
2013-12-07 23:35:00,10.5,3.0,30.35,West,270,0.0,0.0,71,0.00,,,0.00,WUHU21623XXSP,2013-12-08 04:35:00,
2013-12-07 23:41:00,10.5,3.0,30.35,West,270,0.0,0.0,71,0.00,,,0.00,WUHU21623XXSP,2013-12-08 04:41:00,
2013-12-07 23:46:00,10.5,3.3,30.35,West,270,0.0,0.0,72,0.00,,,0.00,WUHU21623XXSP,2013-12-08 04:46:00,
2013-12-07 23:51:00,10.3,3.1,30.36,West,270,0.0,0.0,72,0.00,,,0.00,WUHU21623XXSP,2013-12-08 04:51:00,
2013-12-07 23:56:00,10.3,3.1,30.36,West,270,0.0,0.0,72,0.00,,,0.00,WUHU21623XXSP,2013-12-08 04:56:00,